TimeMDT,TemperatureF,Dew PointF,Humidity,Sea Level PressureIn,VisibilityMPH,Wind Direction,Wind SpeedMPH,Gust SpeedMPH,PrecipitationIn,Events,Conditions,WindDirDegrees,DateUTC
12:53 AM,68.0,14.0,12,29.30,7.0,South,12.7,-,N/A,,Clear,180,2013-04-09 06:53:00
1:53 AM,66.0,15.1,14,29.29,9.0,South,10.4,-,N/A,,Clear,180,2013-04-09 07:53:00
2:53 AM,66.9,16.0,14,29.27,10.0,South,12.7,-,N/A,,Clear,170,2013-04-09 08:53:00
3:53 AM,61.0,16.0,17,29.30,10.0,SE,9.2,-,N/A,,Clear,140,2013-04-09 09:53:00
4:53 AM,60.1,19.0,20,29.31,10.0,SSE,11.5,-,N/A,,Clear,150,2013-04-09 10:53:00
5:53 AM,57.0,19.0,23,29.34,8.0,SSW,5.8,-,N/A,,Clear,210,2013-04-09 11:53:00
6:53 AM,57.9,19.0,22,29.38,10.0,SSW,5.8,-,N/A,,Clear,200,2013-04-09 12:53:00
7:53 AM,66.9,26.1,21,29.42,4.0,West,21.9,27.6,N/A,,Haze,270,2013-04-09 13:53:00
8:18 AM,68.0,26.6,21,29.59,3.0,West,17.3,29.9,N/A,,Haze,270,2013-04-09 14:18:00
8:26 AM,68.0,26.6,21,29.60,2.5,West,20.7,26.5,N/A,,Haze,260,2013-04-09 14:26:00
8:53 AM,68.0,24.1,19,29.45,2.0,West,20.7,-,N/A,,Haze,260,2013-04-09 14:53:00
9:34 AM,69.8,21.2,16,29.62,3.0,WSW,19.6,27.6,N/A,,Haze,250,2013-04-09 15:34:00
9:53 AM,71.1,24.1,17,29.49,4.0,West,23.0,29.9,N/A,,Haze,270,2013-04-09 15:53:00
10:00 AM,71.6,24.8,17,29.63,5.0,West,20.7,-,N/A,,Haze,260,2013-04-09 16:00:00
10:53 AM,69.1,30.0,23,29.52,5.0,West,26.5,35.7,N/A,,Haze,270,2013-04-09 16:53:00
11:53 AM,70.0,30.9,24,29.53,7.0,West,26.5,38.0,N/A,,Clear,270,2013-04-09 17:53:00
12:53 PM,68.0,30.9,25,29.55,9.0,WNW,29.9,39.1,N/A,,Clear,290,2013-04-09 18:53:00
1:53 PM,66.0,30.0,26,29.54,8.0,West,29.9,44.9,N/A,,Clear,280,2013-04-09 19:53:00
2:53 PM,66.9,28.9,24,29.54,10.0,West,28.8,36.8,N/A,,Clear,280,2013-04-09 20:53:00
3:53 PM,66.9,27.0,22,29.55,9.0,West,27.6,39.1,N/A,,Clear,280,2013-04-09 21:53:00
4:53 PM,66.9,24.1,20,29.56,9.0,West,26.5,35.7,N/A,,Clear,270,2013-04-09 22:53:00
5:53 PM,64.9,23.0,20,29.58,10.0,West,29.9,36.8,N/A,,Clear,280,2013-04-09 23:53:00
6:53 PM,63.0,23.0,22,29.62,10.0,WNW,18.4,-,N/A,,Clear,300,2013-04-10 00:53:00
7:53 PM,61.0,23.0,23,29.63,10.0,WNW,11.5,-,N/A,,Clear,290,2013-04-10 01:53:00
8:53 PM,59.0,21.9,24,29.66,10.0,NW,15.0,-,N/A,,Clear,320,2013-04-10 02:53:00
9:53 PM,57.9,25.0,28,29.71,10.0,NNW,15.0,-,N/A,,Overcast,330,2013-04-10 03:53:00
10:53 PM,57.9,27.0,31,29.71,10.0,WNW,6.9,-,N/A,,Overcast,300,2013-04-10 04:53:00
11:53 PM,50.0,18.0,28,29.79,6.0,NNW,18.4,-,N/A,,Haze,330,2013-04-10 05:53:00